Villers-Poterie - Challenge Vals & Châteaux

Le jogging de la fraternité à Villers-Poterie (13.50 km)

Classement complet

Le classement original se trouve sur : http://valsetchateaux.blogspot.be/
CHALLENGE VAL & CHATEAUX
LE JOGGING DE LA FRATERNITÉ - VILLERS-POTERIE
DISTANCE : 13.50 km
samedi 15 juillet 2017
 
Place dos NOM Catégorie Pl/cat temps temps/km Vitesse
1 950 MAHIA SÉBASTIEN SEH 1 0:47:38 03:32 17.00
2 145 GEENS CHRISTOPHE SEH 2 0:47:58 03:33 16.89
3 3536 DEHU DAMIEN SEH 3 0:48:54 03:37 16.56
4 864 GUIDO GIANNI SEH 4 0:51:34 03:49 15.71
5 3608 PONCELET XAVIER V1 1 0:51:44 03:50 15.66
6 842 DARTE ERIC V2 1 0:52:14 03:52 15.51
7 4007 TOUINA KADDOUR V1 2 0:52:38 03:54 15.39
8 3598 OUBOUSKOUR BRAHIM V1 3 0:53:00 03:56 15.28
9 232 BRUYERE PATRICK V1 4 0:53:10 03:56 15.24
10 3609 HOWET VINCENT V2 2 0:53:19 03:57 15.19
11 7 ROB VINCENT SEH 5 0:53:28 03:58 15.15
12 3 RIVEZ PIERRE V3 1 0:53:37 03:58 15.11
13 116 RIGUELLE FRANÇOIS SEH 6 0:53:42 03:59 15.08
14 787 DOS SANTOS SERGIO V1 5 0:54:31 04:02 14.86
15 875 MICHEL JEAN-BENOIT SEH 7 0:54:38 04:03 14.83
16 3269 BOMBAERTS LOÏC SEH 8 0:54:40 04:03 14.82
17 508 DALEBROUX VINCENT V2 3 0:54:50 04:04 14.77
18 445 HARDENNE ANDRÉ V2 4 0:54:52 04:04 14.76
19 234 DASSELEER CHRISTIAN V1 6 0:55:06 04:05 14.70
20 3571 TORRES SYLVANO SEH 9 0:55:47 04:08 14.52
21 412 DUYCK XAVIER V2 5 0:56:14 04:10 14.40
22 450 SCHALKWIJK BENOIT V2 6 0:56:32 04:11 14.33
23 3990 ALOISANTONI MARCO SEH 10 0:56:51 04:13 14.25
24 102 GODFROID ERIC V1 7 0:56:54 04:13 14.24
25 389 DAMBOIS THIERRY V1 8 0:57:05 04:14 14.19
26 873 MARTIN ARTHUR SEH 11 0:57:09 04:14 14.17
27 816 DESPIEGELEER JOFFREY SEH 12 0:57:14 04:14 14.15
28 67 BERGER THIERRY V1 9 0:57:22 04:15 14.12
29 944 YAGUE-SANZ NATHALIE A2 1 0:58:01 04:18 13.96
30 70 CADO PAUL V2 7 0:58:02 04:18 13.96
31 3591 PONTI ANGELO V1 10 0:58:11 04:19 13.92
32 273 JOUAN BERNARD V2 8 0:58:23 04:19 13.87
33 825 BARBIEUX PATRICE V3 2 0:58:28 04:20 13.85
34 3544 GOFFINET FLORENCE A1 1 0:58:30 04:20 13.85
35 344 KEMPENEERS PASCAL V1 11 0:58:31 04:20 13.84
36 452 GEEROMS KRISTEL SEF 1 0:58:48 04:21 13.78
37 451 GEEROMS ALBERT V2 9 0:58:49 04:21 13.77
38 3959 DEPUTTER FRANCIS V2 10 0:59:12 04:23 13.68
39 73 VANNOORENBERGHE JOEL V1 12 0:59:12 04:23 13.68
40 3599 LUPCIN PATRICK V3 3 0:59:40 04:25 13.58
41 103 SARTORI SERGIO V2 11 0:59:55 04:26 13.52
42 3583 COLLETE HUGUES SEH 13 1:00:02 04:27 13.49
43 134 MOLON ARTHUR ESH 1 1:00:15 04:28 13.44
44 233 DEWINTER EMMANUELLE SEF 2 1:00:22 04:28 13.42
45 3971 RAMI SAID V1 13 1:00:25 04:29 13.41
46 3956 FOSCHI MARCO SEH 14 1:00:35 04:29 13.37
47 230 PIFFER DANIEL V2 12 1:00:43 04:30 13.34
48 443 HANUS MICHEL V2 13 1:00:58 04:31 13.29
49 3576 LEURQUIN STANY SEH 15 1:01:08 04:32 13.25
50 941 D'ANGELO AMERINO V2 14 1:01:14 04:32 13.23
51 3556 RISO FRANCISCO SEH 16 1:01:26 04:33 13.19
52 3573 DELHVE FRANCOIS SEH 17 1:01:27 04:33 13.18
53 3560 VALENTIN SIMON SEH 18 1:01:29 04:33 13.17
54 367 CAPORALE JULIEN SEH 19 1:01:29 04:33 13.17
55 464 FERY ETIENNE V1 14 1:01:48 04:35 13.11
56 888 ROLAND MICHAËL SEH 20 1:01:54 04:35 13.09
57 3575 CARLIER LUC V2 15 1:02:01 04:36 13.06
58 780 MAMERE JACQUES V3 4 1:02:04 04:36 13.05
59 28 ALLOUCHI SOULI V1 15 1:02:13 04:37 13.02
60 800 PONCELET FRÉDÉRIC V1 16 1:02:15 04:37 13.01
61 703 KNOTT FABIENNE A2 2 1:02:23 04:37 12.98
62 14 BEUGNIES DAVID SEH 21 1:02:24 04:37 12.98
63 157 GYS HANS SEH 22 1:02:24 04:37 12.98
64 3997 CATTELAIN MAXIME SEH 23 1:02:33 04:38 12.95
65 133 FORTUNATO ITALO V1 17 1:02:35 04:38 12.94
66 905 DE MASI GIANNI V3 5 1:02:45 04:39 12.91
67 900 WALLON STEVE SEH 24 1:02:47 04:39 12.90
68 496 CLOSE MARC-ALEXANDRE SEH 25 1:02:48 04:39 12.90
69 39 SCHIETTEKATTE GIGI A3 1 1:02:51 04:39 12.89
70 3514 CHEVALIER GAELLE A1 2 1:03:07 04:41 12.83
71 406 LARDINOIS SIMON SEH 26 1:03:18 04:41 12.80
72 121 SCHNEIDER THOMAS SEH 27 1:03:24 04:42 12.78
73 3991 LIBIN FREDERIC SEH 28 1:03:25 04:42 12.77
74 3975 CLABOTS OLIVIER SEH 29 1:03:31 04:42 12.75
75 3582 DEBLANDER BRUNO V2 16 1:03:35 04:43 12.74
76 1 CHALLE RENAUD V2 17 1:03:54 04:44 12.68
77 3963 BAUDEAU JULIEN V1 18 1:03:58 04:44 12.66
78 77 COSTANZO ERASMO SEH 30 1:04:00 04:44 12.66
79 3998 WERTZ NICOLAS SEH 31 1:04:13 04:45 12.61
80 3980 DEMOULION BRIGITTE A3 2 1:04:16 04:46 12.60
81 3977 HARMEL NICOLAS SEH 32 1:04:21 04:46 12.59
82 967 BUFFET KEVIN SEH 33 1:04:43 04:48 12.52
83 889 RONVEAUX ALAIN V2 18 1:04:47 04:48 12.50
84 3265 ATZORI STEVEN SEH 34 1:04:47 04:48 12.50
85 3976 RASEMONT DANY V1 19 1:04:50 04:48 12.49
86 3961 MEUNIER PHILIPPE V1 20 1:04:50 04:48 12.49
87 3596 LOTERMAN STEPHANE V1 21 1:04:51 04:48 12.49
88 246 TSCHIRR GEORGES V3 6 1:04:53 04:48 12.48
89 4000 BILLIET ADRIEN SEH 35 1:04:58 04:49 12.47
90 3545 GUILLAUME CÉDRIC V1 22 1:05:04 04:49 12.45
91 156 PRETER SERGE V3 7 1:05:05 04:49 12.45
92 3574 SEPTEMBER SARAH SEF 3 1:05:12 04:50 12.42
93 101 HALLAS LABIL V1 23 1:05:17 04:50 12.41
94 830 BLAMPAIN NICOLAS SEH 36 1:05:29 04:51 12.37
95 3957 DEMANY MARTIAL SEH 37 1:05:34 04:51 12.35
96 3535 DEGROOTE NICOLAAS V1 24 1:05:35 04:51 12.35
97 4010 DRAGUET HUGO SEH 38 1:05:35 04:51 12.35
98 3552 LIGNY QUENTIN V1 25 1:05:48 04:52 12.31
99 851 DEROY PHILIPPE V3 8 1:05:48 04:52 12.31
100 954 FLORE CARLO V2 19 1:06:13 04:54 12.23
101 251 DEMOULIN ALAIN V2 20 1:06:20 04:55 12.21
102 2 BOUVIER BENOIT V1 26 1:06:36 04:56 12.16
103 3578 HERMAN CORINE A1 3 1:06:46 04:57 12.13
104 375 VANTSIOTIS ANASTHASE V3 9 1:06:59 04:58 12.09
105 155 GONZE ADRIEN SEH 39 1:07:04 04:58 12.08
106 3585 MAGNIETTE JENA CLAUDE V3 10 1:07:08 04:58 12.07
107 4009 CANDIDO DE JESUS FELIPE SEH 40 1:07:20 04:59 12.03
108 931 DEMIERBE FREDDY V3 11 1:07:20 04:59 12.03
109 877 MOUTON AMÉLIE SEF 4 1:07:24 05:00 12.02
110 3568 STALON FRANCOIS XAVIER SEH 41 1:07:25 05:00 12.01
111 49 DECOUX PATRICK V2 21 1:07:29 05:00 12.00
112 4006 HEMSTED EVELYNE SEF 5 1:07:32 05:00 11.99
113 3534 DE LEENER JEAN-MARIE V3 12 1:07:40 05:01 11.97
114 3985 CARVANA GIUSEPPE V1 27 1:07:43 05:01 11.96
115 207 DESSEILLE ERNEST V3 13 1:07:50 05:01 11.94
116 3589 ZANIOL LORENZO ESH 2 1:07:54 05:02 11.93
117 3566 HORLAIT JEAN-LUC V2 22 1:07:55 05:02 11.93
118 3562 VRAY VALERIE A1 4 1:08:07 05:03 11.89
119 3588 JEAN JEROME SEH 42 1:08:07 05:03 11.89
120 3968 OUARY CHRISTIEN V2 23 1:08:14 05:03 11.87
121 3958 FOUCARTE MARIE-LINE A1 5 1:08:26 05:04 11.84
122 886 RICCI GUILLAUME SEH 43 1:08:37 05:05 11.80
123 196 TODARO RENATO V1 28 1:08:38 05:05 11.80
124 242 COULON SOPHIE A1 6 1:08:41 05:05 11.79
125 3974 POURTOIS CHRISTIAN V1 29 1:09:00 05:07 11.74
126 3554 PASU PHILIP SEH 44 1:09:27 05:09 11.66
127 229 DROMELET BÉRANGÈRE A2 3 1:09:32 05:09 11.65
128 23 POTY FRANCIS V2 24 1:09:40 05:10 11.63
129 3953 VENTURA FREDERIC V1 30 1:09:46 05:10 11.61
130 288 TIELEMANS PHILIPPE V2 25 1:10:00 05:11 11.57
131 3996 BRASSEUR FRANCK V1 31 1:10:04 05:11 11.56
132 3549 HOUA MYRIAM A3 3 1:10:18 05:12 11.52
133 4 RANDALL CHRISTOPHER V2 26 1:10:23 05:13 11.51
134 167 FERAUCHE JEAN-MARIE V3 14 1:10:28 05:13 11.49
135 4011 SIMON BENOIT V1 32 1:10:50 05:15 11.44
136 3970 WALLEMACQ JEAN LUC V3 15 1:10:51 05:15 11.43
137 3547 HERPAIN CÉDRIC V1 33 1:11:09 05:16 11.38
138 3965 MANIQUET WILLIAM SEH 45 1:11:11 05:16 11.38
139 844 DE BELDER JOELLE A3 4 1:11:13 05:17 11.37
140 3543 GILLAIN JEAN-MARIE V3 16 1:11:15 05:17 11.37
141 3557 SPITALERI MARIO V2 27 1:11:20 05:17 11.36
142 420 VAN LAETHEM ELOI V3 17 1:11:25 05:17 11.34
143 371 EDEBOUW PHILIPPE V3 18 1:11:30 05:18 11.33
144 3551 LIEGEOIS PASCAL V3 19 1:11:49 05:19 11.28
145 3570 PUTTENEERS SEBASTIEN SEH 46 1:11:54 05:20 11.27
146 4012 DENIS STEPHANE V1 34 1:11:59 05:20 11.25
147 3563 ZERGHE PIERRE V1 35 1:11:59 05:20 11.25
148 190 FONTAINE JUSTINE SEF 6 1:12:00 05:20 11.25
149 916 FARVACQUE JAMIE A1 7 1:12:18 05:21 11.20
150 154 HENRIOULLE JÉRÔME SEH 47 1:12:21 05:22 11.20
151 829 BIERLAIRE NICOLAS SEH 48 1:12:23 05:22 11.19
152 98 TREVISAN DAVID V1 36 1:12:24 05:22 11.19
153 20 MARCHAND OLIVIER V2 28 1:12:25 05:22 11.19
154 323 LECONTE EMMELINE A1 8 1:12:37 05:23 11.15
155 3559 TROUPIN CÉCILE A1 9 1:12:38 05:23 11.15
156 3539 DEPRET DELPHINE SEF 7 1:12:43 05:23 11.14
157 3994 PINCHIUSO LUIGI V1 37 1:13:17 05:26 11.05
158 3555 PLATTEUW FRANCIS V3 20 1:13:21 05:26 11.04
159 845 DEBODT ELODIE SEF 8 1:13:23 05:26 11.04
160 160 COSTA LUCIA A3 5 1:13:28 05:27 11.03
161 996 SBRO SALVATORE V3 21 1:13:29 05:27 11.02
162 4008 BEZERA VANESSA SEF 9 1:13:39 05:27 11.00
163 3954 CIREDDU ABIO V1 38 1:13:58 05:29 10.95
164 3972 CANON OLIVIER V1 39 1:14:33 05:31 10.87
165 83 DENIS CHRISTIAN V3 22 1:14:41 05:32 10.85
166 3987 FOSTER CHRISTIANE A2 4 1:14:41 05:32 10.85
167 275 MATHY JEAN-LUC V3 23 1:14:48 05:32 10.83
168 942 COLPAERT GUIDO V4 1 1:14:49 05:33 10.83
169 3964 MANIQUET MICHEL V2 29 1:14:50 05:33 10.82
170 3565 DENIS ANTOINE SEH 49 1:14:50 05:33 10.82
171 3541 DUPONT ROMAIN SEH 50 1:14:52 05:33 10.82
172 3548 HERTELEER CHRISTIAN V3 24 1:15:00 05:33 10.80
173 4004 ROBERT ARNAUD SEH 51 1:15:18 05:35 10.76
174 6 RODRIGUEZ MERINO ENRIQUE V2 30 1:15:24 05:35 10.74
175 3518 DE CLERCQ STEVE SEH 52 1:15:30 05:36 10.73
176 3590 LOUAGIE JOHN V1 40 1:15:39 05:36 10.71
177 454 BARIGAND JACQUELINE A3 6 1:15:40 05:36 10.70
178 200 KINIF PHILIPPE V2 31 1:15:53 05:37 10.67
179 201 LAGNEAUX CÉLINE A1 10 1:15:53 05:37 10.67
180 3973 VANDEN BOSSCHE THIERRY V1 41 1:16:01 05:38 10.66
181 4005 TAVEL DIDIER V2 32 1:16:01 05:38 10.66
182 3995 PETIT NICOLAS V1 42 1:16:01 05:38 10.66
183 3982 ESCOYEZ DORIANE SEF 10 1:16:08 05:38 10.64
184 3999 FRANCOIS NICOLAS SEH 53 1:16:16 05:39 10.62
185 3966 THIROT JOEL V2 33 1:16:25 05:40 10.60
186 3988 SCHELLENS CHRISTIAN V2 34 1:16:38 05:41 10.57
187 3989 DE KEYSER CARINE A2 5 1:16:39 05:41 10.57
188 3979 GHERAILLE JEAN MARC V2 35 1:16:47 05:41 10.55
189 127 DIEUDONNE CLAIRE A3 7 1:16:47 05:41 10.55
190 4002 SALVE MANU V1 43 1:16:47 05:41 10.55
191 163 COCO LUIGI V2 36 1:17:21 05:44 10.47
192 159 BUFFET PATRICK V2 37 1:17:24 05:44 10.47
193 3993 MOISE PATRICK V2 38 1:17:30 05:44 10.45
194 3266 BALIEU CÉDRIC SEH 54 1:17:34 05:45 10.44
195 440 BAL ALAIN V2 39 1:17:42 05:45 10.42
196 202 MASSART VICTOR V3 25 1:17:51 05:46 10.40
197 3550 LA PAGLIA SILVANO V2 40 1:18:04 05:47 10.38
198 3600 FAGNAT MARTINE A3 8 1:18:23 05:48 10.33
199 3595 BOUTEFEU JACKY V2 41 1:18:33 05:49 10.31
200 3584 POTY MADISON SEF 11 1:18:41 05:50 10.29
201 216 COMANDINI LUCIANO V3 26 1:18:44 05:50 10.29
202 4001 CUVELIER BRIEUC SEH 55 1:18:49 05:50 10.28
203 3268 BOBOT MÉLODIE SEF 12 1:18:55 05:51 10.26
204 3984 PENING CHRISTIAN V4 2 1:19:01 05:51 10.25
205 3561 VICO MARIELLE A2 6 1:19:24 05:53 10.20
206 27 PANNEELS JEAN-JACQUES V3 27 1:19:36 05:54 10.18
207 257 AUTEQUITTE BÉNÉDICTE A2 7 1:19:38 05:54 10.17
208 995 ANTONACCI DAN V1 44 1:19:55 05:55 10.14
209 135 BOURMORCK CARINE A2 8 1:19:55 05:55 10.14
210 3597 SAUCIN LUC V2 42 1:20:12 05:56 10.10
211 3540 DUMONT LUDIVINE A1 11 1:20:13 05:57 10.10
212 782 DUBISY ANNE-MARIE A4 1 1:20:20 05:57 10.08
213 5 DUSSART JEAN-PIERRE V3 28 1:20:47 05:59 10.03
214 3960 PLAPIED DANIELLE A3 9 1:20:50 05:59 10.02
215 3983 HALLEUX FRANCOISE A2 9 1:20:57 06:00 10.01
216 959 TORRES PASQUALE V2 43 1:21:02 06:00 10.00
217 131 PEGORARO ROBERTO V3 29 1:21:30 06:02 9.94
218 806 CHALTIN ALICIA SEF 13 1:21:35 06:03 9.93
219 3967 DELMARCHE ANNE A3 10 1:22:00 06:04 9.88
220 892 TOURNEUR BERTRAND SEH 56 1:22:06 06:05 9.87
221 398 MEURRENS YVON V3 30 1:22:14 06:05 9.85
222 835 CIOCCA LAURE A1 12 1:22:20 06:06 9.84
223 3594 VAN AUGAERDEN MARC V2 44 1:22:46 06:08 9.79
224 3992 CULOT VIOLAINE ESF 1 1:23:18 06:10 9.72
225 87 CULOT PATRICK V2 45 1:23:20 06:10 9.72
226 3519 DE KEYSER MARIE-JEANNE A4 2 1:23:28 06:11 9.70
227 3952 BELLIER SOPHIE A2 10 1:23:33 06:11 9.69
228 3580 BOTTEGA CEDRIC SEH 57 1:24:32 06:16 9.58
229 824 ANIQUE FABIENNE A3 11 1:24:33 06:16 9.58
230 3579 PAO-MOLE AMILCAR V1 45 1:24:36 06:16 9.57
231 3567 SAUVEGARDE ANNE-PASCALE A2 11 1:24:48 06:17 9.55
232 3962 LEBRUSY GREGORY SEH 58 1:24:56 06:17 9.54
233 3986 JANKOWSKI FREDERIC V2 46 1:25:07 06:18 9.52
234 3969 KEIMEUL CATHERINE A2 12 1:25:21 06:19 9.49
235 3592 DUBOIS BERTHE A3 12 1:25:48 06:21 9.44
236 786 DEPILLECYN JEAN-MARIE V3 31 1:25:50 06:21 9.44
237 3569 TAVIER BENOIT V2 47 1:25:52 06:22 9.43
238 176 PAINBLANC DIDIER V3 32 1:25:55 06:22 9.43
239 3593 ROUSSELLE JOEL V3 33 1:26:00 06:22 9.42
240 110 VAN IMMERSEEL SANDRINE A1 13 1:26:01 06:22 9.42
241 880 PEROT MARJORIE A1 14 1:27:09 06:27 9.29
242 859 GENOT PAMELA A1 15 1:27:21 06:28 9.27
243 850 DENOLF SOPHIE ESF 2 1:27:23 06:28 9.27
244 940 DUJEU LUC V1 46 1:27:55 06:31 9.21
245 813 NOIZET MARIE-ALICE A2 13 1:28:02 06:31 9.20
246 3581 HERCOT MARIE-ASTRID A3 13 1:28:16 06:32 9.18
247 29 VANHUFFELEN JOSSELINE A3 14 1:29:05 06:36 9.09
248 3572 BARBIEUX JULIE A1 16 1:29:17 06:37 9.07
249 3981 DEHCEE CAROLE A1 17 1:29:32 06:38 9.05
250 3546 HANOTEAU ISABELLE A2 14 1:29:38 06:38 9.04
251 840 DAMME CHRISTINE A1 18 1:30:11 06:41 8.98
252 126 GEORGE AMANDINE ESF 3 1:30:21 06:42 8.97
253 3558 TORTORA SABRINA SEF 14 1:30:24 06:42 8.96
254 231 LEEMANS JOELLE A2 15 1:31:01 06:45 8.90
255 3586 DARDENNE CAROLE A1 19 1:31:13 06:45 8.88
256 3587 MATHIEU CAROLINE A1 20 1:31:13 06:45 8.88
257 4003 RAIMOND OLIVIER V2 48 1:31:26 06:46 8.86
258 3553 MAUS MADELEINE A3 15 1:31:58 06:49 8.81
259 909 SEPULCHRE MICHAEL V3 34 1:32:44 06:52 8.73
260 997 NOEL CHRISTIANE A4 3 1:33:34 06:56 8.66
261 3577 VAN CANGH FRANCOISE A4 4 1:35:08 07:03 8.51
262 3955 GIBON BRIGITTE A3 16 1:36:19 07:08 8.41
263 3951 GIACOVELLI JESSICA A1 21 1:36:46 07:10 8.37
264 788 PATTE CAROLINE A2 16 1:37:29 07:13 8.31
265 884 RAGUZZI NADIA A2 17 1:37:30 07:13 8.31
266 289 SIBILLE CÉCILE A2 18 1:37:30 07:13 8.31
267 137 ALEXANDRE PASCAL V2 49 1:38:05 07:16 8.26
268 3542 GEORGE MAXIME SEH 59 1:38:54 07:20 8.19
269 3978 PIRSON LYDIA A2 19 1:41:54 07:33 7.95
270 444 CORDIER CLAUDE A2 20 1:45:12 07:48 7.70
271 8601 COLONVAL XAVIER SEH 60 2:15:54 10:04 5.96